CZ-6A DEB

Satellite information

Favourite Embed

Satellite Type and Status

DEBRISIN ORBIT

Key statistics

Satellite CZ-6A DEB at a glance.

Uptime

335

Days in orbit

Revolutions

≈ 14.6

Per day

Orbit

LEO

Low Earth Orbit

Inclination

88.9

Latest

Satellite identification and parameters

Extended collection of information and parameters for CZ-6A DEB.

Object identification

Identified? True

Debris? True

Object name: CZ-6A DEB

International designator: 2024-140DW

Object number (NORAD): 60717

Object ID (CCSDS): 60717

Country: PEOPLES REPUBLIC OF CHINA (PRC)

Current information (Y/N): Y

RCS size: MEDIUM

Orbital parameters

Period: 98.324 minutes

Inclination: 88.9267 deg

SMA: 7056.694 km

Apoapsis: 803.241 km

Periapsis: 553.877 km

RAAN: 308.1081 deg

Eccentricy: 0.0176686

Argument of periapsis: 279.4329 deg

Mean anomaly: 78.6952 deg

Mean motion: 14.64538684 rev/day

Mean motion (dot): 0.00007012 rev/day2

B* drag term: 0.0010485 1/REarth

Two-line elements (TLE)

Creation date: July 6, 2025, 10:56 p.m.

Reference frame: TEME

Reference center: EARTH

Epoch: July 6, 2025, 8:35 p.m. UTC

TLE line 0: 0 CZ-6A DEB

TLE line 1: 1 60717U 24140DW 25187.85830538 .00007012 00000-0 10485-2 0 9995

TLE line 2: 2 60717 88.9267 308.1081 0176686 279.4329 78.6952 14.64538684 48013

Live tracking on map

Real-time ground track for satellite CZ-6A DEB.

In-orbit conjunctions

A list of the most updated potential collisions computed for object CZ-6A DEB.

Target Orbit TCA Probability of collision Miss distance Type
FENGYUN 1C DEB SSO 2025-02-11 08:02:50 0.0001136427 522.0 (m) DEBRIS
DMSP 5D-2 F11 DEB SSO 2025-02-06 13:16:23 0.0002042053 368.0 (m) DEBRIS
NOAA 16 DEB SSO 2025-01-05 18:03:26 0.0002242433 193.0 (m) DEBRIS
PEGASUS R/B LEO 2024-12-23 08:18:12 0.001081901 562.0 (m) ROCKET BODY
FENGYUN 1C DEB SSO 2024-11-28 12:49:27 0.0001082935 250.0 (m) DEBRIS

Associated space launch

18 Low Earth Orbit communication satellites with Ku, Q and V band payloads for the G60 constellation operated by Shanghai Spacecom Satellite Technology (SSST) with funding backed by the Shanghai local government. Initial constellation will consist of 1296 satellites by 2027 with long term plans to expand it to 12000 satellites.

CZ-6A DEB was lifted into orbit during the mission ‘Long March 6A | G60 Polar Group 01’, on board a Long March 6A space rocket.

The launch took place on Aug. 6, 2024, 6:42 a.m. from Launch Complex 9A.

For more information about the launch, click the button.

Launch to space Long March 6A | G60 Polar Group 01
Long March 6A | G60 Polar Group 01

Agency: N/A

Status: Launch Successful

Launch date: Aug. 6, 2024, 6:42 a.m. UTC

Rocket: Long March 6A

Launch pad: Launch Complex 9A

Location: Taiyuan Satellite Launch Center, People's Republic of China

...

Latest news about this satellite

News about space launch
Brightness of first Chinese broadband constellation satellites alarms astronomers

The first satellites of a Chinese broadband constellation are significantly brighter than those of Western systems, posing a new challenge for astronomers.

News about space launch
Chinese rocket stage breaks up into cloud of more than 700 pieces of space debris

HELSINKI — A Chinese Long March 6A rocket’s upper stage has fragmented into a cloud of over 700 pieces of space debris, adding to concerns about long-term orbital safety. China […]

News about space launch
China's Thousand Sails Megaconstellation Kicks Off with Dangerous Debris Field

China's Thousand Sails Megaconstellation Kicks Off with Dangerous Debris Field


Newsletter sign-up

Weekly statistics, charts and insights to help you stay on top of the space industry.